GW1476 Weather Reports


time (UTC)temp
F
wind
direction
speed
knots
gust
knots
rain 1hr
in
rain 24hr
in
rain mn
in
humidity
%
barometer
mb
20260901110924 70 203 0.0 0.0 0.00 0.00 0.00 99 1022.3
20260901110308 70 203 0.0 0.0 0.00 0.00 0.00 99 1022.0
20260901105744 70 180 0.0 0.0 0.00 0.00 0.00 99 1022.0
20260901105136 70 203 0.0 0.0 0.00 0.00 0.00 99 1022.0
20260901104533 70 203 0.0 0.0 0.00 0.00 0.00 99 1022.0
20260901103310 70 225 0.0 0.0 0.00 0.00 0.00 99 1022.0
20260901102120 70 203 0.0 0.0 0.00 0.00 0.00 99 1021.6
20260901101526 70 225 0.0 0.0 0.00 0.00 0.00 99 1022.0
20260901100947 70 203 0.0 0.0 0.00 0.00 0.00 99 1021.6
20260901100328 70 203 0.0 0.0 0.00 0.00 0.00 99 1021.6
20260901095141 70 203 0.0 0.0 0.00 0.00 0.00 99 1021.6
20260901094506 70 203 0.0 0.0 0.00 0.00 0.00 99 1021.6
20260901091527 71 225 0.0 0.0 0.00 0.00 0.00 99 1021.3
20260901090328 71 225 0.0 0.0 0.00 0.00 0.00 99 1021.3
20260901085126 71 248 0.0 0.0 0.00 0.00 0.00 99 1021.3
20260901084511 71 203 0.0 0.0 0.00 0.00 0.00 99 1021.3
20260901083928 71 203 0.0 0.0 0.00 0.00 0.00 99 1021.3
20260901083348 71 225 0.0 0.0 0.00 0.00 0.00 99 1021.3
20260901082727 71 203 0.0 0.0 0.00 0.00 0.00 99 1021.3
20260901082127 71 203 0.0 0.0 0.00 0.00 0.00 99 1021.3
20260901081515 71 180 0.0 0.0 0.00 0.00 0.00 99 1021.3
20260901080936 71 225 0.0 0.0 0.00 0.00 0.00 99 1021.3
20260901080350 71 203 0.0 0.0 0.00 0.00 0.00 99 1021.3
20260901075745 71 225 0.0 0.0 0.00 0.00 0.00 99 1021.3
20260901074532 71 270 0.0 0.0 0.00 0.00 0.00 99 1021.3
20260901073907 71 225 0.0 0.0 0.00 0.00 0.00 99 1021.3
20260901073318 71 180 0.0 0.0 0.00 0.00 0.00 99 1021.3
20260901072722 71 203 0.0 0.0 0.00 0.00 0.00 99 1021.3
20260901072130 71 270 0.0 0.0 0.00 0.00 0.00 99 1021.3
20260901071541 72 248 0.0 0.0 0.00 0.00 0.00 99 1020.9
20260901070311 72 203 0.0 0.0 0.00 0.00 0.00 99 1020.9
20260901065724 71 203 0.0 0.0 0.00 0.00 0.00 99 1021.3
20260901065128 71 315 0.0 0.0 0.00 0.00 0.00 99 1021.3
20260901064544 72 203 0.0 0.0 0.00 0.00 0.00 99 1021.3
20260901063940 71 248 0.0 0.0 0.00 0.00 0.00 99 1021.3
20260901062717 72 225 0.0 0.0 0.00 0.00 0.00 99 1021.3
20260901062132 72 225 0.0 0.0 0.00 0.00 0.00 99 1021.3
20260901061535 72 203 0.0 0.0 0.00 0.00 0.00 99 1021.3
20260901060943 72 225 0.0 0.0 0.00 0.00 0.00 99 1021.3
20260901060321 72 203 0.0 0.0 0.00 0.00 0.00 99 1021.3
20260901055735 72 203 0.0 0.0 0.00 0.00 0.00 99 1021.6
20260901054517 72 203 0.0 0.0 0.00 0.00 0.00 99 1021.6
20260901053950 72 203 0.0 0.0 0.00 0.00 0.00 99 1021.6
20260901053345 72 203 0.0 0.0 0.00 0.00 0.00 99 1021.3
20260901051513 72 248 0.0 0.0 0.00 0.00 0.00 99 1021.6
20260901050908 72 270 0.0 0.0 0.00 0.00 0.00 99 1021.6
20260901050325 72 270 0.0 0.0 0.00 0.00 0.00 99 1021.6
20260901045722 72 203 0.0 0.0 0.00 0.00 0.00 99 1021.6
20260901045114 73 225 0.0 0.0 0.00 0.00 0.00 99 1021.6
20260901044510 73 225 0.0 0.0 0.00 0.00 0.00 99 1021.6
20260901042107 73 203 0.0 0.0 0.00 0.00 0.00 99 1022.0
20260901041548 73 203 0.0 0.0 0.00 0.00 0.00 99 1022.0
20260901040347 73 225 0.0 0.0 0.00 0.00 0.00 99 1021.6
20260901035745 74 203 0.0 0.0 0.00 0.00 0.00 99 1021.6
20260901035136 74 225 0.0 0.0 0.00 0.00 0.00 99 1022.0
20260901033909 74 203 0.0 0.0 0.00 0.00 0.00 99 1022.0
20260901033312 74 248 0.0 0.0 0.00 0.00 0.00 99 1022.0
20260901032710 74 203 0.0 0.0 0.00 0.00 0.00 99 1022.0
20260901031510 74 203 0.0 0.0 0.00 0.00 0.00 99 1022.0
20260901030932 74 203 0.0 0.0 0.00 0.00 0.00 99 1022.0
20260901030349 74 203 0.0 0.0 0.00 0.00 0.00 99 1022.0
20260901025131 75 203 0.0 0.0 0.00 0.00 0.00 99 1022.0
20260901024522 75 203 0.0 0.0 0.00 0.00 0.00 99 1022.0
20260901023947 75 203 0.0 0.0 0.00 0.00 0.00 99 1022.0
20260901023313 75 203 0.0 0.0 0.00 0.00 0.00 99 1022.0
20260901022124 76 203 0.0 0.0 0.00 0.00 0.00 99 1022.0
20260901021528 76 225 0.0 0.0 0.00 0.00 0.00 99 1022.0
20260901020927 76 203 0.0 0.0 0.00 0.00 0.00 99 1022.0
20260901015726 76 203 0.0 0.0 0.00 0.00 0.00 99 1021.6
20260901015140 76 203 0.0 0.0 0.00 0.00 0.00 99 1021.6
20260901014526 77 203 0.0 0.0 0.00 0.00 0.00 99 1021.6
20260901013923 77 203 0.0 0.0 0.00 0.00 0.00 99 1021.6
20260901013343 77 225 0.0 0.0 0.00 0.00 0.00 99 1021.6
20260901012709 77 225 0.0 0.0 0.00 0.00 0.00 99 1021.3
20260901012114 77 203 0.0 0.0 0.00 0.00 0.00 99 1021.3
20260901011528 78 225 0.0 0.0 0.00 0.00 0.00 99 1020.9
20260901010940 78 225 0.0 0.0 0.00 0.00 0.00 99 1020.9
20260901005141 78 225 0.9 1.7 0.00 0.00 0.00 99 1020.6
20260901004538 78 203 1.7 1.7 0.00 0.00 0.00 99 1020.6
20260901003923 79 203 0.0 0.0 0.00 0.00 0.00 99 1020.6
20260901003311 79 225 0.0 0.9 0.00 0.00 0.00 99 1020.6
20260901002738 79 203 1.7 1.7 0.00 0.00 0.00 99 1020.6
20260901002150 80 203 0.0 1.7 0.00 0.00 0.00 99 1020.6
20260901001508 80 203 0.0 0.0 0.00 0.00 0.00 99 1020.6
20260901000923 80 248 0.0 1.7 0.00 0.00 0.00 98 1020.6
20260901000321 80 203 0.9 1.7 0.00 0.00 0.00 98 1020.3
20260831235719 81 225 0.9 1.7 0.00 0.00 0.00 97 1020.6
20260831235146 81 248 0.9 1.7 0.00 0.00 0.00 97 1020.6
20260831233339 82 203 2.6 3.5 0.00 0.00 0.00 95 1020.6
20260831232713 83 180 2.6 2.6 0.00 0.00 0.00 92 1020.6
20260831232146 84 180 2.6 2.6 0.00 0.00 0.00 90 1020.6
20260831231544 85 203 1.7 1.7 0.00 0.00 0.00 88 1020.6
20260831230947 86 225 2.6 2.6 0.00 0.00 0.00 84 1020.6
20260831225739 88 225 2.6 2.6 0.00 0.00 0.00 80 1020.6
20260831225115 90 225 1.7 1.7 0.00 0.00 0.00 77 1020.6
20260831224536 89 203 2.6 3.5 0.00 0.00 0.00 78 1020.6
20260831223917 95 203 2.6 2.6 0.00 0.00 0.00 69 1020.6
20260831223336 92 158 2.6 3.5 0.00 0.00 0.00 74 1020.6
20260831222727 92 225 2.6 3.5 0.00 0.00 0.00 73 1020.6
20260831222122 97 225 1.7 2.6 0.00 0.00 0.00 66 1020.6
20260831220918 97 203 1.7 1.7 0.00 0.00 0.00 62 1020.9
20260831215707 97 225 2.6 2.6 0.00 0.00 0.00 62 1020.9
20260831215136 97 270 1.7 1.7 0.00 0.00 0.00 61 1020.9
20260831214533 96 180 1.7 1.7 0.00 0.00 0.00 60 1020.9
20260831213331 98 23 0.9 2.6 0.00 0.00 0.00 57 1020.9
20260831212707 98 225 3.5 3.5 0.00 0.00 0.00 57 1021.3
20260831212135 98 23 0.0 0.0 0.00 0.00 0.00 58 1020.9
20260831211535 98 225 0.9 1.7 0.00 0.00 0.00 59 1020.9
20260831210915 96 225 1.7 3.5 0.00 0.00 0.00 62 1020.9
20260831210325 99 248 2.6 3.5 0.00 0.00 0.00 59 1020.9
20260831205723 97 135 0.0 4.3 0.00 0.00 0.00 60 1020.9
20260831205140 96 248 2.6 2.6 0.00 0.00 0.00 63 1021.3
20260831204545 97 248 2.6 3.5 0.00 0.00 0.00 61 1021.3
20260831203911 100 270 3.5 4.3 0.00 0.00 0.00 59 1021.3
20260831203340 99 203 3.5 3.5 0.00 0.00 0.00 59 1021.3
20260831202743 99 135 0.9 3.5 0.00 0.00 0.00 60 1021.3
20260831202143 100 180 1.7 3.5 0.00 0.00 0.00 59 1021.3
20260831201516 95 113 1.7 2.6 0.00 0.00 0.00 65 1021.6
20260831200934 95 225 1.7 4.3 0.00 0.00 0.00 64 1021.6
20260831200326 94 135 0.9 2.6 0.00 0.00 0.00 65 1021.6
20260831195737 95 180 2.6 2.6 0.00 0.00 0.00 65 1021.6
20260831195147 96 203 0.9 2.6 0.00 0.00 0.00 62 1022.0
20260831194547 93 203 2.6 2.6 0.00 0.00 0.00 73 1022.0
20260831193915 94 158 0.0 2.6 0.00 0.00 0.00 71 1022.0
20260831193317 91 225 1.7 2.6 0.00 0.00 0.00 74 1022.0
20260831192719 90 338 0.9 3.5 0.00 0.00 0.00 75 1022.0
20260831192132 95 23 1.7 2.6 0.00 0.00 0.00 67 1022.0
20260831191542 94 23 0.0 0.0 0.00 0.00 0.00 68 1022.0
20260831190908 95 203 3.5 3.5 0.00 0.00 0.00 68 1022.3
20260831190327 96 225 1.7 3.5 0.00 0.00 0.00 67 1022.0
20260831185722 94 203 2.6 2.6 0.00 0.00 0.00 70 1022.3
20260831185149 93 203 2.6 2.6 0.00 0.00 0.00 72 1022.3
20260831184509 91 270 2.6 3.5 0.00 0.00 0.00 74 1022.3
20260831183315 90 338 2.6 4.3 0.00 0.00 0.00 75 1022.6
20260831182743 91 113 1.7 2.6 0.00 0.00 0.00 74 1022.6
20260831182120 91 248 1.7 2.6 0.00 0.00 0.00 74 1022.6
20260831181508 91 45 0.9 2.6 0.00 0.00 0.00 76 1022.6
20260831180910 90 270 2.6 2.6 0.00 0.00 0.00 77 1022.6
20260831180345 90 248 2.6 2.6 0.00 0.00 0.00 76 1023.0
20260831175718 90 248 0.0 2.6 0.00 0.00 0.00 75 1022.6
20260831175128 90 180 1.7 2.6 0.00 0.00 0.00 75 1023.0
20260831174542 91 203 0.9 1.7 0.00 0.00 0.00 74 1023.0
20260831173939 90 315 1.7 3.5 0.00 0.00 0.00 74 1023.0
20260831173329 90 180 2.6 2.6 0.00 0.00 0.00 75 1023.0
20260831172706 91 270 1.7 1.7 0.00 0.00 0.00 75 1023.0
20260831172136 90 248 0.9 3.5 0.00 0.00 0.00 74 1023.0
20260831171550 90 225 0.0 0.0 0.00 0.00 0.00 75 1023.0
20260831170347 90 293 0.0 2.6 0.00 0.00 0.00 75 1023.0
20260831165742 88 45 0.0 0.0 0.00 0.00 0.00 81 1023.0
20260831165109 87 203 0.9 0.9 0.00 0.00 0.00 79 1023.3
20260831164546 88 23 0.0 2.6 0.00 0.00 0.00 79 1023.3
20260831163913 87 23 0.0 1.7 0.00 0.00 0.00 81 1023.3
20260831162735 87 90 0.0 0.0 0.00 0.00 0.00 80 1023.3
20260831162144 88 180 0.0 0.9 0.00 0.00 0.00 78 1023.3
20260831161515 88 0 0.9 1.7 0.00 0.00 0.00 77 1023.3
20260831160937 88 203 1.7 3.5 0.00 0.00 0.00 77 1023.3
20260831160347 90 225 0.9 2.6 0.00 0.00 0.00 75 1023.3
20260831155723 92 180 2.6 3.5 0.00 0.00 0.00 74 1023.3
20260831155135 91 158 3.5 3.5 0.00 0.00 0.00 77 1023.3
20260831153308 87 203 1.7 2.6 0.00 0.00 0.00 82 1023.3
20260831152717 87 225 1.7 1.7 0.00 0.00 0.00 84 1023.3
20260831152111 87 225 1.7 1.7 0.00 0.00 0.00 81 1023.3
20260831151532 88 45 1.7 1.7 0.00 0.00 0.00 80 1023.3
20260831150926 86 45 1.7 1.7 0.00 0.00 0.00 83 1023.3
20260831150317 86 45 1.7 1.7 0.00 0.00 0.00 83 1023.3
20260831145150 84 180 0.0 0.0 0.00 0.00 0.00 87 1023.3
20260831144533 83 135 0.0 0.0 0.00 0.00 0.00 89 1023.3
20260831143922 83 203 0.9 0.9 0.00 0.00 0.00 88 1023.3
20260831143331 84 23 0.0 1.7 0.00 0.00 0.00 87 1023.3
20260831142706 82 158 0.0 1.7 0.00 0.00 0.00 89 1023.3
20260831142118 82 180 0.9 0.9 0.00 0.00 0.00 91 1023.3
20260831141536 82 158 0.0 0.0 0.00 0.00 0.00 89 1023.3
20260831140929 81 270 0.0 1.7 0.00 0.00 0.00 91 1023.3
20260831140339 80 315 0.9 1.7 0.00 0.00 0.00 93 1023.3
20260831135715 80 180 1.7 2.6 0.00 0.00 0.00 92 1023.3
20260831135125 80 45 0.0 1.7 0.00 0.00 0.00 93 1023.3
20260831134535 77 270 0.0 0.0 0.00 0.00 0.00 99 1023.3
20260831133340 75 203 0.9 1.7 0.00 0.00 0.00 99 1023.3
20260831132733 74 225 2.6 2.6 0.00 0.00 0.00 99 1023.3
20260831132121 74 180 2.6 2.6 0.00 0.00 0.00 99 1023.3
20260831131513 74 203 0.0 0.0 0.00 0.00 0.00 99 1023.3
20260831130314 74 225 0.0 0.0 0.00 0.00 0.00 99 1023.3
20260831125714 73 203 0.0 0.0 0.00 0.00 0.00 99 1023.3
20260831125135 73 180 0.0 0.0 0.00 0.00 0.00 99 1023.3
20260831123910 72 203 1.7 1.7 0.00 0.00 0.00 99 1023.0
20260831123350 72 180 0.0 1.7 0.00 0.00 0.00 99 1023.0
20260831122713 71 158 0.9 2.6 0.00 0.00 0.00 99 1023.0
20260831122148 71 225 0.0 0.9 0.00 0.00 0.00 99 1023.0
20260831121520 71 180 0.0 1.7 0.00 0.00 0.00 99 1023.0
20260831120318 70 203 0.0 0.0 0.00 0.00 0.00 99 1023.0
20260831115743 70 270 0.0 0.0 0.00 0.00 0.00 99 1023.0
20260831114546 70 180 0.0 0.0 0.00 0.00 0.00 99 1023.0
20260831113932 70 270 0.0 1.7 0.00 0.00 0.00 99 1023.0
20260831113326 70 180 3.5 3.5 0.00 0.00 0.00 99 1023.0
20260831112739 69 203 0.0 0.0 0.00 0.00 0.00 99 1023.0
20260831111510 69 180 0.0 0.0 0.00 0.00 0.00 99 1023.0